Location: Cussy
(47.0410°N, 4.6412°E)
Time: 20:52:31
(UTC+00:00)

CENTAUR R/B - Pass Details

Date: 30 November 2020
Orbit: 750 x 1438 km, 63.4° (Epoch: 11 January)

Event Time Altitude Azimuth Distance (km) Brightness Sun altitude
Rises 17:00:32 0° 149° (SSE) 3,383 5.2 -10.9°
Reaches altitude 10° 17:05:25 10° 111° (ESE) 2,614 4.3 -11.7°
Enters shadow 17:06:27 11° 101° (E) 2,615 4.2 -11.9°
